[[{"header":{"parameterUnit":"m.s-1","parameterCategory":1,"la1":30.2991,"la2":30.254,"lo1":-89.0895,"lo2":-89.0444,"dy":0.0017,"dx":0.0017,"nx":28,"ny":28,"refTime":"2023-08-13T09:00:00:Z","depth":0,"parameterNumber":2,"parameterNumberName":"U-component_of_WINDS"},"data":[0,0,0,0,0,0,0,0,0,0,0,0,0,0,0,0,0,0,0,0,0,0,0,0,0,0,0,0,0,0,0,0,0,0,0,0,0,0,0,0,0,0,0,0,0,0,0,0,0,0,0,0,0,0,0,0,0,0,1.0338,1.0339,0,1.0468,1.0469,1.0471,1.0509,1.0508,1.0507,1.0507,1.0643,1.0647,1.0651,0,0,0,0,0,0,0,0,0,0,0,0,0,1.0125,1.0128,1.0338,1.0339,1.0341,1.0467,1.0469,1.0471,1.0509,1.0508,1.0507,1.0506,1.0641,1.0647,1.0652,0,0,0,0,0,0,0,0,0,0,0,0,0,1.0232,1.0129,1.0337,1.0375,1.038,1.0467,1.0469,1.0471,1.0509,1.0508,1.0507,1.0506,1.064,1.0646,1.0652,1.0713,0,0,1.0672,1.0675,0,0,0,0,0,0,0,0,1.0226,1.024,1.0368,1.0372,1.0378,1.0471,1.0444,1.0552,1.0509,1.046,1.0507,1.0505,1.0587,1.0597,1.0624,1.0719,1.0725,1.0673,1.0676,1.0679,1.0681,0,0,0,0,0,0,0,1.0218,1.0235,1.0389,1.037,1.0376,1.0386,1.04,1.0465,1.0528,1.0464,1.0467,1.0482,1.0589,1.0618,1.0628,1.0727,1.0672,1.0678,1.0682,1.0684,1.0877,1.0878,0,0,0,0,0,0,1.0204,1.0228,1.0385,1.0393,1.0298,1.0391,1.0406,1.0442,1.0527,1.0539,1.0483,1.0483,1.0607,1.062,1.0633,1.0708,1.0679,1.0685,1.0689,1.0876,1.0877,1.0879,0,0,0,0,0,0,1.0199,1.0218,1.038,1.0311,1.0333,1.0395,1.0435,1.0445,1.0474,1.0541,1.0553,1.05,1.0607,1.0624,1.0692,1.0713,1.0688,1.0694,1.0874,1.0876,1.0878,1.0859,0,0,0,0,0,0,1.0193,1.0216,1.0239,1.0312,1.0336,1.0436,1.0436,1.0448,1.0484,1.0486,1.056,1.0572,1.0608,1.0682,1.0698,1.0722,1.0699,1.0873,1.0875,1.0877,1.0858,1.086,1.0862,0,0,0,0,0,1.0185,1.023,1.024,1.0259,1.0366,1.0437,1.0452,1.0491,1.0486,1.051,1.0553,1.0569,1.0708,1.0689,1.0707,1.0733,1.0871,1.0874,1.0877,1.0857,1.086,1.0862,0,0,0,0,0,0,1.0159,1.024,1.0252,1.0321,1.0372,1.0444,1.0475,1.0492,1.0547,1.0546,1.0594,1.061,1.0675,1.0711,1.0688,1.0795,1.079,1.0797,1.0769,1.0772,1.0774,1.0764,1.0704,0,0,0,0,0,1.0161,1.0211,1.0279,1.0334,1.0358,1.0412,1.0445,1.047,1.0525,1.0547,1.0596,1.0649,1.0705,1.0741,1.0796,1.0864,1.088,1.089,1.0892,1.0893,1.0899,1.0936,1.0941,1.0888,1.0888,1.0888,0,0,1.0166,1.0216,1.0245,1.0329,1.0372,1.0423,1.043,1.0485,1.0523,1.0556,1.0623,1.066,1.0723,1.0791,1.0824,1.0823,1.0917,1.0897,1.0897,1.0902,1.094,1.0945,1.0949,1.089,1.0889,1.0889,0,0,1.0201,1.0244,1.0294,1.0336,1.0399,1.0435,1.0446,1.0516,1.0541,1.0609,1.0634,1.0681,1.0776,1.082,1.0854,1.0904,1.0922,1.0921,1.0931,1.0967,1.0971,1.0975,1.0992,1.0998,1.0926,1.0926,1.0926,0,1.0199,1.0277,1.0317,1.037,1.0406,1.0437,1.0487,1.0526,1.0605,1.0629,1.0627,1.0746,1.0791,1.0869,1.0881,1.0908,1.0923,1.0913,1.0967,1.0972,1.0976,1.0993,1.0999,1.0926,1.0926,1.0926,1.0926,0,1.0272,1.0325,1.0357,1.0431,1.0471,1.0522,1.057,1.0606,1.0628,1.0663,1.0731,1.0786,1.0852,1.0873,1.0895,1.0954,1.0951,1.0958,1.0954,1.098,1.0996,1.1003,1.0925,1.0925,1.0925,1.0925,0,0,1.0294,1.0388,1.0399,1.0433,1.0505,1.0547,1.06,1.0663,1.0692,1.0746,1.0791,1.087,1.0875,1.0915,1.0943,1.0974,1.1009,1.0977,1.0979,1.098,1.1076,1.107,1.1077,1.1021,1.1022,1.1024,1.107,0,1.0337,1.0431,1.0469,1.0545,1.0595,1.0624,1.067,1.072,1.0754,1.0802,1.084,1.0895,1.0899,1.0923,1.0956,1.0998,1.1029,1.0995,1.1064,1.1066,1.1046,1.1086,1.108,1.1122,1.1077,1.1078,1.1079,0,1.0401,1.0453,1.0534,1.0599,1.0621,1.0662,1.0722,1.0767,1.0824,1.0847,1.0889,1.0915,1.0971,1.0964,1.1042,1.1018,1.1048,1.1073,1.1076,1.1083,1.1074,1.1094,1.1136,1.1142,1.109,1.1089,1.1088,0,1.0408,1.0499,1.0559,1.0586,1.0664,1.0691,1.0725,1.0781,1.0816,1.0869,1.0892,1.0952,1.0984,1.103,1.1071,1.1062,1.1145,1.1141,1.1165,1.1164,1.1182,1.118,1.1229,1.1202,1.1202,1.1202,1.1201,0,1.0452,1.05,1.0562,1.0599,1.0654,1.0697,1.075,1.0786,1.0835,1.0879,1.0909,1.095,1.1002,1.105,1.1083,1.1142,1.1157,1.1177,1.1185,1.1174,1.1172,1.1194,1.1192,1.1203,1.1203,1.1203,1.1202,0,1.0469,1.0513,1.058,1.0647,1.0665,1.0703,1.0761,1.0798,1.0833,1.0889,1.0905,1.0961,1.1019,1.1064,1.114,1.1162,1.1224,1.1234,1.1205,1.1209,1.123,1.1227,1.1295,1.1306,1.1272,1.1272,1.1273,0,1.0494,1.0532,1.0603,1.0634,1.0667,1.0718,1.0754,1.0797,1.0833,1.0899,1.0928,1.0988,1.1038,1.1129,1.1177,1.1235,1.1246,1.1265,1.1255,1.1242,1.1245,1.1242,1.1245,1.1266,1.1267,1.1267,1.1267,0,1.0534,1.0553,1.0603,1.066,1.0702,1.0749,1.0798,1.0822,1.0874,1.0913,1.0972,1.101,1.1087,1.1146,1.1208,1.1244,1.1264,1.127,1.1278,1.1267,1.1248,1.1258,1.1207,1.1268,1.1268,1.1268,1.1268,1.1268,1.0555,1.059,1.0645,1.0699,1.074,1.0784,1.0821,1.0861,1.091,1.0975,1.0998,1.1058,1.1113,1.1199,1.1235,1.1283,1.1284,1.1297,1.13,1.1303,1.1301,1.1241,1.1295,1.1295,1.1295,1.1295,1.1295,0,1.0596,1.0632,1.0682,1.0748,1.079,1.0805,1.0858,1.0893,1.0946,1.0995,1.1043,1.111,1.1167,1.1219,1.1278,1.1307,1.1317,1.1321,1.1319,1.1326,1.1297,1.1283,1.1311,1.1311,1.1311,1.1311,1.1311,1.1311,1.0622,1.068,1.0706,1.0785,1.0822,1.088,1.0909,1.095,1.0989,1.1063,1.111,1.1143,1.1193,1.1256,1.1309,1.1322,1.1343,1.1343,1.1359,1.1331,1.1329,1.1327,1.1314,1.1348,1.1348,1.1385,1.1385,1.1386]},{"header":{"parameterUnit":"m.s-1","parameterCategory":1,"la1":30.2991,"la2":30.254,"lo1":-89.0895,"lo2":-89.0444,"dy":0.0017,"dx":0.0017,"nx":28,"ny":28,"refTime":"2023-08-13T09:00:00:Z","depth":0,"parameterNumber":3,"parameterNumberName":"V-component_of_WINDS"},"data":[0,0,0,0,0,0,0,0,0,0,0,0,0,0,0,0,0,0,0,0,0,0,0,0,0,0,0,0,0,0,0,0,0,0,0,0,0,0,0,0,0,0,0,0,0,0,0,0,0,0,0,0,0,0,0,0,0,0,3.6936,3.6935,0,3.6886,3.6885,3.6885,3.6885,3.6885,3.6886,3.6887,3.6828,3.6826,3.6824,0,0,0,0,0,0,0,0,0,0,0,0,0,3.7022,3.702,3.6936,3.6935,3.6934,3.6886,3.6885,3.6885,3.6884,3.6885,3.6886,3.6887,3.6829,3.6826,3.6824,0,0,0,0,0,0,0,0,0,0,0,0,0,3.6979,3.702,3.6936,3.6929,3.6928,3.6886,3.6885,3.6885,3.6884,3.6885,3.6886,3.6887,3.683,3.6827,3.6823,3.6784,0,0,3.6814,3.6812,0,0,0,0,0,0,0,0,3.6982,3.6976,3.693,3.6929,3.6928,3.6893,3.6894,3.685,3.6884,3.69,3.6887,3.6888,3.6848,3.6844,3.6832,3.6781,3.6778,3.6813,3.6811,3.681,3.6809,0,0,0,0,0,0,0,3.6985,3.6978,3.6916,3.693,3.6928,3.6925,3.692,3.6886,3.6869,3.6899,3.6899,3.6894,3.6848,3.6835,3.6831,3.6778,3.6813,3.681,3.6808,3.6807,3.6688,3.6687,0,0,0,0,0,0,3.699,3.6981,3.6917,3.6914,3.6958,3.6923,3.6917,3.6903,3.687,3.6866,3.6893,3.6894,3.684,3.6834,3.6829,3.6778,3.681,3.6807,3.6805,3.6689,3.6688,3.6687,0,0,0,0,0,0,3.6992,3.6985,3.6919,3.6948,3.6939,3.692,3.6904,3.6901,3.6889,3.6865,3.6861,3.6883,3.6841,3.6833,3.6795,3.6776,3.6805,3.6802,3.6691,3.6689,3.6687,3.6678,0,0,0,0,0,0,3.6995,3.6985,3.6972,3.6947,3.6938,3.6889,3.6903,3.69,3.6884,3.6885,3.6855,3.6851,3.6841,3.68,3.6792,3.6772,3.68,3.6692,3.669,3.6688,3.668,3.6676,3.6673,0,0,0,0,0,3.6998,3.697,3.6971,3.6964,3.6921,3.6888,3.6882,3.6873,3.6883,3.6868,3.6852,3.6852,3.678,3.6796,3.6787,3.6766,3.6694,3.6691,3.6688,3.6681,3.6677,3.6673,0,0,0,0,0,0,3.6991,3.6967,3.6968,3.6932,3.6912,3.6888,3.6869,3.6869,3.6844,3.6845,3.6833,3.6826,3.6787,3.6773,3.6791,3.6724,3.6737,3.6733,3.6735,3.6731,3.6727,3.6731,3.6797,0,0,0,0,0,3.6986,3.6964,3.6943,3.6913,3.6903,3.6888,3.6873,3.6868,3.6846,3.6837,3.6818,3.6795,3.6766,3.6748,3.6721,3.6678,3.667,3.6659,3.6655,3.6652,3.6648,3.6622,3.6616,3.6678,3.6678,3.6678,0,0,3.6974,3.6958,3.6944,3.6911,3.6895,3.687,3.6881,3.6854,3.6833,3.6832,3.6795,3.678,3.6752,3.6711,3.6692,3.6698,3.6629,3.6649,3.6647,3.6644,3.6618,3.6612,3.6607,3.6676,3.6676,3.6676,0,0,3.6939,3.6926,3.6899,3.6883,3.686,3.6849,3.6843,3.6818,3.6809,3.6772,3.677,3.6744,3.6697,3.6676,3.666,3.6616,3.6614,3.6607,3.6588,3.6563,3.6558,3.6553,3.6535,3.6529,3.6603,3.6603,3.6603,0,3.6927,3.6891,3.6885,3.6858,3.6842,3.6841,3.6812,3.6796,3.6763,3.6751,3.6759,3.6697,3.6679,3.6632,3.6621,3.6608,3.6598,3.661,3.656,3.6555,3.6551,3.6533,3.6527,3.6602,3.6602,3.6602,3.6603,0,3.6876,3.6851,3.6831,3.6802,3.6784,3.6756,3.6743,3.6725,3.672,3.6708,3.6669,3.6647,3.6614,3.6603,3.6598,3.6554,3.6558,3.6563,3.6575,3.6544,3.6527,3.6521,3.6601,3.6601,3.6602,3.6602,0,0,3.6836,3.6803,3.6796,3.6782,3.6755,3.6734,3.6705,3.6675,3.6659,3.6636,3.6608,3.6568,3.6571,3.6553,3.6545,3.6523,3.6486,3.653,3.6529,3.6521,3.6434,3.6429,3.6422,3.6486,3.6484,3.6483,3.6435,0,3.6797,3.6747,3.674,3.6695,3.667,3.6668,3.6642,3.6621,3.6608,3.6583,3.6568,3.6539,3.6547,3.6535,3.6514,3.6496,3.6469,3.6499,3.6457,3.6456,3.6463,3.6414,3.641,3.6365,3.6429,3.6428,3.6427,0,3.6745,3.6723,3.6676,3.6651,3.664,3.6617,3.6588,3.6565,3.654,3.6532,3.6511,3.6506,3.6471,3.6487,3.6438,3.6459,3.6441,3.6429,3.6427,3.6421,3.6439,3.6405,3.6351,3.6344,3.6417,3.6418,3.6419,0,3.6718,3.6676,3.6642,3.6631,3.6601,3.6585,3.6571,3.6547,3.6529,3.6503,3.649,3.646,3.6442,3.6417,3.6402,3.6415,3.6353,3.6368,3.6343,3.6343,3.6329,3.633,3.627,3.632,3.632,3.632,3.6321,0,3.6675,3.6645,3.663,3.6609,3.6575,3.6566,3.6531,3.6518,3.6496,3.647,3.6466,3.6441,3.6424,3.6395,3.6383,3.6343,3.6335,3.6325,3.6322,3.6325,3.6326,3.6312,3.6314,3.6319,3.6319,3.6319,3.632,0,3.6639,3.6627,3.659,3.6566,3.6559,3.6535,3.6512,3.649,3.6477,3.6444,3.6436,3.6415,3.6381,3.6364,3.6321,3.6313,3.6267,3.6266,3.6276,3.6274,3.625,3.6252,3.6178,3.6166,3.6226,3.6225,3.6225,0,3.6611,3.6589,3.6562,3.6546,3.6533,3.6506,3.6488,3.6477,3.6457,3.6426,3.6407,3.6373,3.6346,3.6291,3.627,3.6236,3.6234,3.621,3.6229,3.6231,3.6231,3.6232,3.6228,3.6206,3.6206,3.6205,3.6205,0,3.6563,3.6558,3.6534,3.6507,3.6486,3.6463,3.6441,3.6427,3.6411,3.6389,3.6356,3.6335,3.6292,3.6257,3.6222,3.6204,3.62,3.62,3.6192,3.6193,3.6199,3.6194,3.6265,3.6201,3.6201,3.6202,3.6202,3.6202,3.6529,3.6508,3.6486,3.6458,3.6441,3.642,3.6397,3.6383,3.6355,3.6321,3.6315,3.6279,3.6251,3.6204,3.6186,3.6155,3.6159,3.6149,3.6145,3.6142,3.614,3.6206,3.6148,3.6148,3.6148,3.6148,3.6148,0,3.6478,3.6464,3.6439,3.6409,3.6386,3.6388,3.6363,3.6343,3.6312,3.6288,3.6261,3.6221,3.6187,3.6164,3.6128,3.6108,3.6105,3.6099,3.6099,3.6094,3.6139,3.6149,3.6101,3.6101,3.6101,3.6101,3.6101,3.6101,3.645,3.6415,3.6407,3.6362,3.6347,3.6313,3.6298,3.6278,3.6259,3.6215,3.6188,3.6174,3.6149,3.6111,3.6079,3.6073,3.6059,3.6052,3.6045,3.6087,3.6092,3.6096,3.6105,3.605,3.605,3.6003,3.6003,3.6002]}]]